Weather in Larnevsk

Russia / Bryansk Oblast     53°08′55″N   31°30′53″E
temp.,
°C
wind,
m/s
gust,
m/s
humid.,
%
clouds,
%
prec.,
mm/h
press.,
hPa
HPBL,
m
4 july, mon
mon400:00+19nw22845 0.0 101811
03:00+18nw2290100 0.0 101813
06:00+18wnw11885 0.0 101711
09:00+23w22745 0.0 1017381
12:00+27w22575 0.0 10171448
15:00+28s2247100 0.0 10162103
18:00+24w3570100 0.0 1015143
21:00+22nne11740 0.0 101511
5 july, tue
tue500:00+19ssw11800 0.0 101611
03:00+18s11841 0.1 101611
06:00+18sw22845 0.0 101635
09:00+23sw2269100 0.0 1016348
12:00+26ssw34535 0.0 1016925
15:00+27ssw345212 0.0 10151153
18:00+26ssw1365100 0.0 1014193
21:00+21nnw337736 0.1 101537
6 july, wed
wed600:00+18nnw22899 0.0 101622
03:00+17nnw2290100 0.0 101522
06:00+18nne1188100 0.0 101523
09:00+22nne227477 0.0 1015350
12:00+26ese2361100 0.0 1014993
15:00+27se2660100 1.3 10111227
18:00+22wnw598746 6.6 1012428
21:00+14nnw4994100 6.6 1014292
7 july, thu
thu700:00+14nw4892100 0.0 1015369
03:00+13nnw3896100 0.0 1016259
06:00+13nnw2689100 0.0 1016234
09:00+17n3475100 0.0 1017481
12:00+19n2363100 0.0 1017892
15:00+21ne2362100 0.0 1017993
18:00+20ese2269100 0.0 1017296
21:00+17se118599 0.0 101711
8 july, fri
fri800:00+15nne118966 0.0 101711
03:00+14nne229267 0.0 101713
06:00+15n2290100 0.0 101748
09:00+19ne2275100 0.0 1017319
12:00+22ene1161100 0.0 1017942
15:00+24s125372 0.0 10171473
18:00+23sse1165100 0.1 1016290
21:00+18n3380100 0.3 101733